Regional Weather Roundup
Issued by NWS Midland/Odessa, TX

Skip options and go directly to product.
Home | Oldest Version | Previous Version | Current Version | All | Text Only | Save Text | Print | Product List | Glossary On

Skip product version selection by date and time.   
434
ASUS44 KMAF 290010
RWRMAF
MIDLAND AREA WEATHER ROUNDUP
NATIONAL WEATHER SERVICE MIDLAND TX
700 PM CDT FRI AUG 28 2015

...IN SOUTHWEST TEXAS AND SOUTHEAST NEW MEXICO...

CITY           SKY/WX    TMP DP  RH WIND       PRES   REMARKS
ALPINE         PTSUNNY   93  47  20 E6        30.09S
ANDREWS        TSTM      73  65  75 MISG      30.03F
ARTESIA        CLOUDY    90  50  25 SW8       29.99F
BIG SPRING     PTSUNNY   91  44  19 SE9       29.95S
CARLSBAD       CLOUDY    86  55  34 W17       29.98R
DRYDEN           N/A     98  41  14 SE10G21   29.90S
FORT STOCKTON  MOSUNNY   95  47  19 SE16      29.93R
GUAD PASS      CLOUDY    73  55  53 E23       30.17S
HOBBS          TSTM      72  64  78 E12       30.06R
MARFA          MOSUNNY   90  48  24 NE8       30.08F
MIDLAND AIRPK  PTSUNNY   96  37  13 SE10      29.95R
MIDLAND INTL   PTSUNNY   96  44  16 SE13      29.93S
ODESSA         PTSUNNY   95  45  17 SE10      29.95R
PECOS          PTSUNNY   96  51  21 W6        29.89S
PRESIDIO       NOT AVBL
SEMINOLE       LGT RAIN  75  61  63 SE9       29.99F
SNYDER         SUNNY     96  42  15 S9        29.93S
WINK           TSTM      74  66  76 N25G41    30.00R
$$
...OTHER STATIONS IN TEXAS...

CITY           SKY/WX    TMP DP  RH WIND       PRES   REMARKS
ABILENE        MOSUNNY   96  49  20 SE17      29.92R
AMARILLO       SUNNY     85  60  42 E12       30.05S
AUSTIN         MOSUNNY   92  58  31 S10       29.91F
BROWNSVILLE    SUNNY     85  66  53 E10       29.93S
CORPUS CHRISTI MOSUNNY   86  63  45 SE13      29.94F
DALLAS FTW     MOSUNNY   93  62  35 SE13      29.91R
DEL RIO        SUNNY     96  49  20 SE14      29.88S
EL PASO        PTSUNNY   95  48  20 NW13      29.97S
HOUSTON INT    PTCLDY    87  66  49 SE7       29.94S
LUBBOCK        CLOUDY    89  52  28 SE8       29.97S
SAN ANGELO     SUNNY     97  44  16 S8        29.91S
SAN ANTONIO    SUNNY     92  58  31 SE13      29.93F
WACO           SUNNY     94  57  28 SE9       29.91F
WICHITA FALLS  NOT AVBL
$$
...OTHER LOCATIONS IN NEW MEXICO...

CITY           SKY/WX    TMP DP  RH WIND       PRES   REMARKS
ALAMAGORDO     CLOUDY    86  50  28 NE18G32   30.04S
ALBUQUERQUE    MOSUNNY   83  49  30 E26G35    30.12S
CANNON AFB     MOSUNNY   87  56  35 NE14      30.05S
CLOVIS         MOSUNNY   86  55  35 NE17      30.07S
HOLLOMAN AFB   CLOUDY    85  49  28 E20G26    30.01F
ROSWELL        CLOUDY    90  54  29 W12       29.99F
RUIDOSO        CLOUDY    66  54  63 MISG      30.30F
SANTA FE       PTSUNNY   80  42  25 E18G26    30.22R
TRUTH OR CONSE CLOUDY    88  50  27 SW3       30.06F
TUCUMCARI      PTSUNNY   88  55  32 NE13      30.06R
$$

USA.gov is the U.S. government's official web portal to all federal, state and local government web resources and services.